Miscellaneous Local Product
Issued by NWS Hastings, NE

Home | Current Version | Previous Version | Text Only | Print | Product List | Glossary Off
Versions: 1 2 3 4 5 6 7 8 9 10 11 12 13 14 15 16 17 18 19 20 21 22 23 24 25 26 27 28 29 30 31 32 33 34 35 36 37 38 39 40 41 42 43 44 45 46 47 48 49 50

000
AXUS43 KGID 271602
MISGRI

GID CWA HOURLY WEATHER ROUNDUP
NATIONAL WEATHER SERVICE HASTINGS NE
1000 AM CST SAT DEC 27 2014

NOTE: "FAIR" INDICATES FEW OR NO CLOUDS BELOW 12,000 FEET WITH NO
SIGNIFICANT WEATHER AND/OR OBSTRUCTIONS TO VISIBILITY.

...SOUTH CENTRAL NEBRASKA...

CITY           SKY/WX    TMP DP  RH WIND       PRES   REMARKS
GRAND ISLAND   SUNNY     13   8  81 W9        30.26S WCI   1
HASTINGS       SUNNY     15  10  80 NW8       30.24S WCI   4
KEARNEY        SUNNY     14  10  85 W10       30.26R WCI   1
ORD            SUNNY     14   9  80 W7        30.24R WCI   4
YORK           SUNNY     16  14  93 NW12      30.25R WCI   3
AURORA         SUNNY     17  13  85 NW13      30.25R WCI   3
LEXINGTON      MOSUNNY   13  11  90 W9        30.27R WCI   1
HOLDREGE       MOSUNNY   10   7  86 W8        30.25R WCI  -1
HEBRON         SUNNY     20  15  81 NW7       30.30R WCI  11

...NEBRASKA PANHANDLE...

CITY           SKY/WX    TMP DP  RH WIND       PRES   REMARKS
CHADRON        SUNNY      8   5  87 W6        30.17R WCI  -2
ALLIANCE       SUNNY      6   2  83 W9        30.14R WCI  -8
SCOTTSBLUFF    MOSUNNY    4   0  83 NW8       30.18R WCI  -9
SIDNEY         MOSUNNY   10   2  69 NW14      30.16R WCI  -6

...WESTERN AND NORTH CENTRAL NEBRASKA...

CITY           SKY/WX    TMP DP  RH WIND       PRES   REMARKS
VALENTINE      SUNNY      9   5  84 SW6       30.18R WCI  -1
AINSWORTH      SUNNY     11   7  84 W9        30.18R WCI  -1
ONEILL         MOSUNNY    8   7  93 W3        30.20R
BROKEN BOW     MOSUNNY   11   8  88 SW5       30.23R WCI   3
IMPERIAL       SUNNY      7   2  80 W8        30.24R WCI  -6
NORTH PLATTE   MOSUNNY    3   0  87 SE3       30.25R FOG
MCCOOK         CLOUDY    15  10  80 W8        30.27S WCI   4

...EASTERN NEBRASKA...

CITY           SKY/WX    TMP DP  RH WIND       PRES   REMARKS
NORFOLK        SUNNY     16  11  80 W10       30.22R WCI   4
SO SIOUX CITY  SUNNY     18  13  80 NW13      30.23R WCI   5
TEKAMAH        SUNNY     20  14  77 NW17      30.26R WCI   5
COLUMBUS       SUNNY     16   7  67 W9        30.27R WCI   4
ALBION         SUNNY     11   7  85 W5        30.24R WCI   3
OMAHA EPPLEY   PTSUNNY   22  17  81 W8        30.28R WCI  12
OFFUTT AFB     SUNNY     23  17  80 W13       30.25R WCI  11
MILLARD        MOSUNNY   21  15  78 NW7       30.26R WCI  13
LINCOLN        SUNNY     21  15  78 NW10      30.29R WCI  10
NEBRASKA CITY  MOSUNNY   23  19  86 NW12      30.26S WCI  12
BEATRICE       MOSUNNY   21  16  81 NW12      30.28R WCI   9
FALLS CITY     CLOUDY    26  19  74 NW16      30.27S WCI  14

...NORTHERN KANSAS...

CITY           SKY/WX    TMP DP  RH WIND       PRES   REMARKS
GOODLAND       SUNNY     14   9  80 W15       30.24R WCI  -1
HILL CITY      SUNNY     16  10  77 W6        30.30R WCI   7
NORTON         SUNNY     18  12  79 W10       30.26S WCI   6
PHILLIPSBURG   SUNNY     21  16  79 W10       30.30R WCI  10
BELOIT         SUNNY     21  16  79 W5        30.32S WCI  15
HAYS           SUNNY     18   7  62 NW13      30.30R WCI   4
RUSSELL        MOSUNNY   19  15  84 NW6       30.31R WCI  11
CONCORDIA      SUNNY     21  16  81 NW8       30.30R WCI  11
SALINA         MOSUNNY   26  16  65 NW13      30.34R WCI  15
TOPEKA         CLOUDY    29  20  69 NW8       30.30R WCI  21



USA.gov is the U.S. government's official web portal to all federal, state and local government web resources and services.